KD2GO Weather Reports


time (UTC)temp
C
wind
direction
speed
KPH
gust
KPH
rain 1hr
cm
rain 24hr
cm
rain mn
cm
humidity
%
barometer
mb
20260508214500 14 328 4.8 16.1 0.00 0.03 0.03 54 1010.7
20260508213001 15 268 6.4 16.1 0.00 0.03 0.03 53 1010.8
20260508211459 15 297 6.4 14.5 0.00 0.03 0.03 52 1010.6
20260508210002 15 281 6.4 12.9 0.00 0.03 0.03 55 1010.7
20260508204500 15 308 8.0 14.5 0.00 0.03 0.03 54 1010.8
20260508201500 14 280 8.0 20.9 0.00 0.03 0.03 55 1011.1
20260508200001 13 274 8.0 16.1 0.00 0.03 0.03 57 1011.2
20260508194500 13 290 6.4 17.7 0.00 0.03 0.03 55 1011.5
20260508193000 13 306 6.4 24.1 0.00 0.03 0.03 57 1011.3
20260508191500 13 281 6.4 19.3 0.00 0.03 0.03 60 1011.3
20260508190002 13 263 8.0 16.1 0.00 0.03 0.03 56 1011.5
20260508183000 15 299 8.0 16.1 0.00 0.03 0.03 48 1011.2
20260508180002 15 277 12.9 24.1 0.00 0.03 0.03 46 1011.2
20260508174500 14 280 11.3 25.7 0.00 0.03 0.03 48 1011.3
20260508173001 15 359 11.3 22.5 0.00 0.03 0.03 49 1011.5
20260508164459 13 272 9.7 19.3 0.00 0.03 0.03 53 1011.9
20260508160001 12 272 6.4 14.5 0.00 0.03 0.03 54 1012.5
20260508154500 11 319 8.0 12.9 0.00 0.03 0.03 54 1012.8
20260508151500 10 294 6.4 12.9 0.00 0.03 0.03 55 1013.3
20260508145959 10 288 6.4 17.7 0.00 0.03 0.03 54 1013.3
20260508144459 10 288 6.4 17.7 0.00 0.03 0.03 55 1013.2
20260508142959 10 254 6.4 11.3 0.00 0.03 0.03 57 1012.9
20260508141459 11 278 6.4 12.9 0.00 0.03 0.03 56 1013.0
20260508135959 10 285 6.4 12.9 0.00 0.03 0.03 58 1013.0
20260508134459 11 285 4.8 11.3 0.00 0.03 0.03 57 1013.0
20260508132958 10 309 4.8 12.9 0.00 0.03 0.03 61 1013.0
20260508131458 10 360 6.4 14.5 0.00 0.03 0.03 61 1013.0
20260508125959 9 276 6.4 12.9 0.00 0.03 0.03 65 1013.1
20260508124459 9 309 6.4 12.9 0.00 0.03 0.03 74 1013.1
20260508122958 8 289 3.2 9.7 0.00 0.03 0.03 77 1013.2
20260508121458 8 268 4.8 11.3 0.00 0.03 0.03 80 1012.9
20260508115959 7 282 4.8 11.3 0.00 0.03 0.03 84 1012.7
20260508114459 7 323 3.2 9.7 0.00 0.03 0.03 84 1012.8
20260508112959 6 279 4.8 11.3 0.00 0.03 0.03 79 1013.1
20260508111458 6 279 3.2 6.4 0.00 0.03 0.03 74 1012.8
20260508105959 5 297 3.2 6.4 0.00 0.03 0.03 69 1012.7
20260508104458 5 281 3.2 6.4 0.00 0.03 0.03 66 1012.5
20260508102957 5 317 1.6 4.8 0.00 0.03 0.03 69 1012.3
20260508101457 5 305 1.6 3.2 0.00 0.03 0.03 72 1012.2
20260508095958 4 305 1.6 4.8 0.00 0.03 0.03 73 1012.1
20260508094459 5 305 1.6 6.4 0.00 0.03 0.03 74 1012.0
20260508092959 4 318 0.0 1.6 0.00 0.03 0.03 79 1011.9
20260508091458 5 318 0.0 1.6 0.00 0.03 0.03 80 1011.8
20260508090000 5 318 0.0 1.6 0.00 0.03 0.03 83 1011.8
20260508084458 5 318 0.0 1.6 0.00 0.03 0.03 84 1011.8
20260508082958 5 318 0.0 0.0 0.00 0.03 0.03 85 1011.6
20260508081459 5 318 1.6 6.4 0.00 0.03 0.03 85 1011.4
20260508075957 6 274 1.6 6.4 0.00 0.03 0.03 85 1011.2
20260508072957 6 91 3.2 9.7 0.03 0.03 0.03 84 1010.6
20260508071458 7 89 4.8 11.3 0.03 0.03 0.03 84 1010.7
20260508070000 7 327 6.4 14.5 0.03 0.03 0.03 82 1011.3
20260508064458 8 161 6.4 16.1 0.00 0.13 0.00 79 1011.2
20260508062958 8 312 3.2 12.9 0.00 0.13 0.00 77 1010.9
20260508061458 8 172 4.8 11.3 0.00 0.13 0.00 77 1010.2
20260508055958 8 255 3.2 9.7 0.00 0.20 0.00 75 1010.2
20260508054457 8 81 4.8 12.9 0.00 0.20 0.00 74 1010.0
20260508052957 9 94 3.2 9.7 0.00 0.20 0.00 71 1010.1
20260508051458 9 122 3.2 11.3 0.00 0.20 0.00 70 1010.4
20260508050002 10 288 6.4 16.1 0.00 0.20 0.00 65 1010.4
20260508043000 10 82 0.0 1.6 0.00 0.20 0.00 63 1009.3
20260508041500 10 82 3.2 6.4 0.00 0.20 0.00 64 1008.9
20260508040006 11 82 0.0 1.6 0.00 0.20 0.00 58 1009.0
20260508034502 11 82 0.0 0.0 0.00 0.20 0.20 59 1008.8
20260508033001 12 82 0.0 1.6 0.00 0.20 0.20 53 1008.7
20260508031502 12 82 1.6 9.7 0.00 0.20 0.20 49 1008.7
20260508023000 12 83 4.8 9.7 0.00 0.20 0.20 50 1008.8
20260508021500 12 72 1.6 6.4 0.00 0.20 0.20 51 1009.0
20260508020000 12 72 1.6 4.8 0.00 0.20 0.20 50 1008.8
20260508014500 12 71 1.6 4.8 0.00 0.20 0.20 50 1008.7
20260508013001 12 71 0.0 6.4 0.00 0.20 0.20 49 1008.6
20260508011500 12 105 0.0 4.8 0.00 0.20 0.20 51 1008.5
20260508010000 11 105 0.0 4.8 0.00 0.81 0.20 54 1008.5
20260508004501 11 105 0.0 0.0 0.00 0.81 0.20 57 1008.3
20260508003001 11 105 0.0 4.8 0.00 0.81 0.20 55 1008.1
20260508001501 12 105 0.0 1.6 0.00 0.81 0.20 55 1008.0
20260508000001 12 105 0.0 3.2 0.00 0.81 0.20 53 1007.8
20260507234500 13 39 0.0 1.6 0.00 0.81 0.20 54 1007.7
20260507233001 14 169 0.0 1.6 0.00 0.81 0.20 51 1007.6
20260507231501 14 169 0.0 3.2 0.00 0.81 0.20 48 1007.7
20260507224501 15 122 1.6 4.8 0.00 0.81 0.20 46 1007.4
20260507221501 15 342 3.2 11.3 0.00 0.81 0.20 41 1007.5